TimeEDT,TemperatureF,Dew PointF,Humidity,Sea Level PressureIn,VisibilityMPH,Wind Direction,Wind SpeedMPH,Gust SpeedMPH,PrecipitationIn,Events,Conditions,WindDirDegrees,DateUTC
12:15 AM,62.1,59.9,93,29.84,7.0,SW,8.1,-,N/A,,Mostly Cloudy,220,2013-10-16 04:15:00
12:34 AM,61.9,59.4,91,29.84,7.0,SW,10.4,16.1,N/A,,Mostly Cloudy,220,2013-10-16 04:34:00
12:55 AM,61.9,59.2,91,29.84,7.0,SW,9.2,-,N/A,,Mostly Cloudy,220,2013-10-16 04:55:00
1:15 AM,61.9,59.2,91,29.83,7.0,SW,8.1,-,N/A,,Mostly Cloudy,220,2013-10-16 05:15:00
1:34 AM,62.2,59.4,90,29.83,7.0,SW,6.9,-,N/A,,Overcast,230,2013-10-16 05:34:00
1:55 AM,61.9,59.0,90,29.85,7.0,West,6.9,-,N/A,,Overcast,270,2013-10-16 05:55:00
2:14 AM,58.5,53.6,84,29.86,10.0,WNW,10.4,-,N/A,,Overcast,290,2013-10-16 06:14:00
2:34 AM,57.0,52.9,86,29.86,10.0,West,5.8,-,N/A,,Mostly Cloudy,280,2013-10-16 06:34:00
2:55 AM,56.3,51.1,83,29.86,10.0,West,8.1,-,N/A,,Mostly Cloudy,280,2013-10-16 06:55:00
3:14 AM,55.4,50.5,84,29.86,10.0,West,4.6,-,N/A,,Mostly Cloudy,280,2013-10-16 07:14:00
3:34 AM,54.3,49.8,85,29.86,10.0,West,3.5,-,N/A,,Scattered Clouds,270,2013-10-16 07:34:00
3:55 AM,53.2,49.6,88,29.85,10.0,Calm,Calm,-,N/A,,Scattered Clouds,0,2013-10-16 07:55:00
4:14 AM,53.2,49.8,88,29.85,10.0,SW,3.5,-,N/A,,Scattered Clouds,220,2013-10-16 08:14:00
4:34 AM,52.7,49.3,88,29.85,10.0,Calm,Calm,-,N/A,,Scattered Clouds,0,2013-10-16 08:34:00
4:55 AM,51.8,48.4,88,29.85,10.0,SW,3.5,-,N/A,,Scattered Clouds,230,2013-10-16 08:55:00
5:14 AM,52.3,48.2,86,29.85,10.0,WSW,5.8,-,N/A,,Clear,250,2013-10-16 09:14:00
5:35 AM,51.4,47.3,86,29.85,10.0,SW,3.5,-,N/A,,Clear,230,2013-10-16 09:35:00
5:55 AM,51.1,47.3,87,29.85,10.0,WSW,4.6,-,N/A,,Clear,250,2013-10-16 09:55:00
6:14 AM,50.5,46.4,86,29.85,10.0,WSW,4.6,-,N/A,,Clear,240,2013-10-16 10:14:00
6:35 AM,49.6,45.5,86,29.85,10.0,WSW,3.5,-,N/A,,Clear,240,2013-10-16 10:35:00
6:55 AM,49.1,45.0,86,29.86,10.0,WSW,5.8,-,N/A,,Clear,240,2013-10-16 10:55:00
7:14 AM,48.7,44.2,84,29.86,10.0,WSW,5.8,-,N/A,,Clear,240,2013-10-16 11:14:00
7:35 AM,48.2,43.7,84,29.86,10.0,WSW,3.5,-,N/A,,Clear,240,2013-10-16 11:35:00
7:54 AM,47.3,43.3,86,29.87,10.0,SW,3.5,-,N/A,,Clear,230,2013-10-16 11:54:00
8:14 AM,47.3,43.7,87,29.87,10.0,SW,3.5,-,N/A,,Mostly Cloudy,220,2013-10-16 12:14:00
8:35 AM,47.3,43.5,87,29.88,10.0,SW,6.9,-,N/A,,Mostly Cloudy,220,2013-10-16 12:35:00
8:54 AM,47.8,43.7,86,29.88,10.0,SW,6.9,-,N/A,,Scattered Clouds,220,2013-10-16 12:54:00
9:14 AM,48.7,43.9,83,29.88,10.0,SW,6.9,-,N/A,,Clear,230,2013-10-16 13:14:00
9:35 AM,49.5,44.2,82,29.89,10.0,WSW,4.6,-,N/A,,Scattered Clouds,240,2013-10-16 13:35:00
9:54 AM,49.1,43.9,82,29.88,10.0,SW,9.2,-,N/A,,Mostly Cloudy,230,2013-10-16 13:54:00
10:14 AM,50.4,43.9,78,29.88,10.0,WSW,8.1,-,N/A,,Mostly Cloudy,240,2013-10-16 14:14:00
10:34 AM,50.2,43.5,78,29.88,10.0,WSW,10.4,16.1,N/A,,Overcast,250,2013-10-16 14:34:00
10:54 AM,50.2,43.7,78,29.89,10.0,SW,6.9,-,N/A,,Overcast,230,2013-10-16 14:54:00
11:14 AM,50.4,43.5,77,29.89,10.0,WSW,9.2,-,N/A,,Overcast,240,2013-10-16 15:14:00
11:34 AM,50.5,43.7,77,29.89,10.0,SW,10.4,-,N/A,,Overcast,230,2013-10-16 15:34:00
11:55 AM,50.2,43.5,78,29.90,10.0,WSW,11.5,16.1,N/A,,Overcast,250,2013-10-16 15:55:00
12:14 PM,50.2,43.7,78,29.90,10.0,WSW,11.5,18.4,N/A,,Overcast,240,2013-10-16 16:14:00
12:34 PM,50.2,43.9,79,29.90,10.0,SW,9.2,-,N/A,,Overcast,230,2013-10-16 16:34:00
12:55 PM,50.4,44.1,79,29.90,10.0,SSW,13.8,-,N/A,,Overcast,210,2013-10-16 16:55:00
1:14 PM,50.5,44.2,79,29.90,10.0,SW,8.1,-,N/A,,Overcast,220,2013-10-16 17:14:00
1:35 PM,50.4,44.2,80,29.90,10.0,SW,8.1,-,N/A,,Overcast,230,2013-10-16 17:35:00
1:55 PM,50.7,44.6,80,29.90,10.0,SW,6.9,-,N/A,,Overcast,220,2013-10-16 17:55:00
2:14 PM,50.9,45.0,80,29.90,10.0,SW,6.9,-,N/A,,Overcast,220,2013-10-16 18:14:00
2:35 PM,50.9,45.9,83,29.89,5.0,SW,8.1,-,N/A,,Haze,220,2013-10-16 18:35:00
2:55 PM,51.8,45.7,80,29.88,10.0,SW,8.1,-,N/A,,Overcast,220,2013-10-16 18:55:00
3:14 PM,52.2,45.7,79,29.88,10.0,WSW,10.4,-,N/A,,Overcast,240,2013-10-16 19:14:00
3:35 PM,52.0,45.7,79,29.89,10.0,SW,11.5,17.3,N/A,,Overcast,230,2013-10-16 19:35:00
3:54 PM,52.2,45.7,79,29.89,10.0,WSW,9.2,-,N/A,,Overcast,250,2013-10-16 19:54:00
4:14 PM,51.8,45.5,79,29.89,7.0,WSW,10.4,16.1,N/A,,Overcast,240,2013-10-16 20:14:00
4:35 PM,52.0,45.9,80,29.89,10.0,SW,11.5,-,N/A,,Overcast,220,2013-10-16 20:35:00
4:54 PM,51.8,46.0,81,29.89,10.0,SW,6.9,-,N/A,,Overcast,230,2013-10-16 20:54:00
5:14 PM,52.0,46.4,81,29.89,10.0,WSW,4.6,-,N/A,,Overcast,240,2013-10-16 21:14:00
5:35 PM,52.0,46.4,81,29.89,10.0,WSW,5.8,-,N/A,,Overcast,240,2013-10-16 21:35:00
5:54 PM,52.2,46.0,80,29.90,10.0,SW,4.6,-,N/A,,Overcast,230,2013-10-16 21:54:00
6:14 PM,52.0,46.2,81,29.89,10.0,SW,8.1,-,N/A,,Overcast,220,2013-10-16 22:14:00
6:35 PM,52.0,46.4,81,29.90,10.0,SW,4.6,-,N/A,,Overcast,230,2013-10-16 22:35:00
6:54 PM,51.8,46.0,81,29.90,10.0,SW,6.9,-,N/A,,Overcast,220,2013-10-16 22:54:00
7:15 PM,51.8,46.4,82,29.90,10.0,SW,8.1,-,N/A,,Overcast,220,2013-10-16 23:15:00
7:35 PM,51.8,46.4,82,29.91,10.0,SW,4.6,-,N/A,,Overcast,220,2013-10-16 23:35:00
7:54 PM,51.8,46.4,82,29.91,10.0,SSW,5.8,-,N/A,,Overcast,210,2013-10-16 23:54:00
8:15 PM,51.8,46.4,82,29.92,10.0,SW,5.8,-,N/A,,Overcast,220,2013-10-17 00:15:00
8:35 PM,51.8,46.4,82,29.92,10.0,SW,3.5,-,N/A,,Overcast,220,2013-10-17 00:35:00
8:54 PM,51.8,46.4,82,29.92,10.0,SW,4.6,-,N/A,,Overcast,230,2013-10-17 00:54:00
9:34 PM,51.3,46.8,85,29.93,10.0,SW,6.9,-,N/A,,Overcast,220,2013-10-17 01:34:00
9:54 PM,51.3,46.8,85,29.93,10.0,SW,5.8,-,N/A,,Overcast,230,2013-10-17 01:54:00
10:15 PM,51.3,46.8,85,29.93,10.0,SW,3.5,-,N/A,,Overcast,230,2013-10-17 02:15:00
10:34 PM,50.9,46.9,86,29.94,7.0,SW,4.6,-,N/A,Rain,Light Rain,220,2013-10-17 02:34:00
10:54 PM,50.9,47.1,87,29.94,10.0,SW,6.9,-,N/A,,Overcast,220,2013-10-17 02:54:00
11:14 PM,50.5,46.9,87,29.93,5.0,SW,4.6,-,N/A,,Overcast,220,2013-10-17 03:14:00
11:34 PM,50.5,47.1,88,29.93,10.0,SW,6.9,-,N/A,,Overcast,230,2013-10-17 03:34:00
11:55 PM,50.5,47.3,89,29.93,10.0,WSW,6.9,-,N/A,,Overcast,240,2013-10-17 03:55:00